DW6996 Weather Reports


Display with metric or nautical units.
time (UTC)temp
F
wind
direction
speed
MPH
gust
MPH
rain 1hr
in
rain 24hr
in
rain mn
in
humidity
%
barometer
mb
20260506230501 84 142 0.0 1.0 0.00 0.00 0.00 19 1010.8
20260506230001 85 188 0.0 0.0 0.00 0.00 0.00 19 1010.8
20260506225502 84 197 0.0 1.0 0.00 0.00 0.00 19 1010.9
20260506225002 84 202 0.0 1.0 0.00 0.00 0.00 18 1010.9
20260506224501 84 233 0.0 2.0 0.00 0.00 0.00 19 1010.9
20260506224001 84 198 0.0 4.0 0.00 0.00 0.00 19 1011.0
20260506223501 84 212 0.0 4.0 0.00 0.00 0.00 19 1011.0
20260506223001 84 138 0.0 4.0 0.00 0.00 0.00 19 1011.1
20260506222656 84 210 0.0 1.0 0.00 0.00 0.00 19 1011.3
20260506222643 84 196 0.0 4.0 0.00 0.00 0.00 19 1011.2
20260506222424 83 172 0.0 1.0 0.00 0.00 0.00 19 1011.3
20260506221002 83 215 0.0 1.0 0.00 0.00 0.00 19 1011.4
20260506220501 83 210 0.0 6.0 0.00 0.00 0.00 19 1011.4
20260506220000 84 278 0.0 6.0 0.00 0.00 0.00 19 1011.5
20260506215724 83 288 0.0 1.0 0.00 0.00 0.00 19 1011.6
20260506215001 83 187 0.0 1.0 0.00 0.00 0.00 19 1011.6
20260506214501 83 202 0.0 10.0 0.00 0.00 0.00 19 1011.7
20260506214001 83 167 0.0 10.0 0.00 0.00 0.00 20 1011.8
20260506213726 82 217 0.0 1.0 0.00 0.00 0.00 20 1011.8
20260506213001 82 286 0.0 2.0 0.00 0.00 0.00 20 1012.0
20260506212501 82 244 0.0 2.0 0.00 0.00 0.00 20 1012.1
20260506212223 83 268 0.0 0.0 0.00 0.00 0.00 20 1012.1
20260506211948 82 236 0.0 2.0 0.00 0.00 0.00 20 1012.2
20260506211001 82 202 0.0 2.0 0.00 0.00 0.00 20 1012.3
20260506210726 82 155 0.0 4.0 0.00 0.00 0.00 20 1012.4
20260506210001 82 267 0.0 4.0 0.00 0.00 0.00 20 1012.5
20260506205455 82 212 0.0 3.0 0.00 0.00 0.00 21 1012.6
20260506205223 82 203 0.0 11.0 0.00 0.00 0.00 21 1012.7
20260506204717 81 159 0.0 11.0 0.00 0.00 0.00 21 1012.6
20260506204222 81 213 1.0 12.0 0.00 0.00 0.00 21 1012.8
20260506203453 81 168 0.0 12.0 0.00 0.00 0.00 21 1012.8
20260506202953 80 180 0.0 0.0 0.00 0.00 0.00 23 1012.9
20260506202453 79 109 0.0 1.0 0.00 0.00 0.00 21 1012.8
20260506201953 80 121 0.0 1.0 0.00 0.00 0.00 21 1012.9
20260506201451 81 201 0.0 1.0 0.00 0.00 0.00 21 1013.0
20260506200950 80 243 0.0 1.0 0.00 0.00 0.00 22 1013.2
20260506200450 80 302 0.0 8.0 0.00 0.00 0.00 23 1013.2
20260506195949 80 265 0.0 8.0 0.00 0.00 0.00 22 1013.3
20260506195449 80 233 0.0 0.0 0.00 0.00 0.00 22 1013.3
20260506195210 80 134 0.0 0.0 0.00 0.00 0.00 22 1013.3
20260506194445 79 175 0.0 9.0 0.00 0.00 0.00 22 1013.4
20260506193944 79 198 0.0 9.0 0.00 0.00 0.00 23 1013.4
20260506193442 79 328 0.0 1.0 0.00 0.00 0.00 22 1013.5
20260506192941 79 299 0.0 2.0 0.00 0.00 0.00 22 1013.6
20260506192442 79 213 0.0 2.0 0.00 0.00 0.00 23 1013.6
20260506191941 79 284 0.0 4.0 0.00 0.00 0.00 23 1013.5
20260506191439 78 290 0.0 4.0 0.00 0.00 0.00 22 1013.6
20260506190938 78 321 0.0 0.0 0.00 0.00 0.00 23 1013.7
20260506190437 78 147 0.0 0.0 0.00 0.00 0.00 23 1013.7
20260506185936 78 215 0.0 0.0 0.00 0.00 0.00 23 1013.8
20260506185706 78 349 0.0 3.0 0.00 0.00 0.00 23 1013.8
20260506184936 79 261 0.0 3.0 0.00 0.00 0.00 23 1013.9
20260506184436 79 196 0.0 2.0 0.00 0.00 0.00 23 1013.9
20260506183937 79 190 0.0 4.0 0.00 0.00 0.00 24 1014.0
20260506183436 78 184 0.0 4.0 0.00 0.00 0.00 24 1014.1
20260506183153 77 203 0.0 2.0 0.00 0.00 0.00 24 1014.1
20260506182433 77 191 0.0 2.0 0.00 0.00 0.00 26 1014.2
20260506182154 77 155 0.0 1.0 0.00 0.00 0.00 25 1014.3
20260506181433 77 250 0.0 1.0 0.00 0.00 0.00 26 1014.3
20260506180932 76 229 0.0 1.0 0.00 0.00 0.00 26 1014.4
20260506180432 77 253 0.0 3.0 0.00 0.00 0.00 26 1014.4
20260506175932 76 204 0.0 7.0 0.00 0.00 0.00 27 1014.4
20260506175434 76 165 0.0 7.0 0.00 0.00 0.00 27 1014.5
20260506175151 76 254 0.0 1.0 0.00 0.00 0.00 27 1014.5
20260506174431 76 267 0.0 0.0 0.00 0.00 0.00 28 1014.5
20260506173930 75 202 0.0 0.0 0.00 0.00 0.00 28 1014.6
20260506173431 75 265 0.0 1.0 0.00 0.00 0.00 28 1014.6
20260506172931 75 237 0.0 1.0 0.00 0.00 0.00 28 1014.6
20260506172430 75 213 0.0 0.0 0.00 0.00 0.00 29 1014.6
20260506171931 74 285 0.0 0.0 0.00 0.00 0.00 29 1014.6
20260506171430 74 242 0.0 1.0 0.00 0.00 0.00 29 1014.6
20260506170930 74 229 0.0 1.0 0.00 0.00 0.00 29 1014.5
20260506170431 73 254 0.0 0.0 0.00 0.00 0.00 29 1014.6
20260506170150 73 249 0.0 1.0 0.00 0.00 0.00 29 1014.5
20260506165429 73 229 0.0 1.0 0.00 0.00 0.00 29 1014.5
20260506164931 73 215 0.0 0.0 0.00 0.00 0.00 29 1014.5
20260506164430 73 221 0.0 0.0 0.00 0.00 0.00 31 1014.4
20260506163929 73 201 0.0 1.0 0.00 0.00 0.00 30 1014.4
20260506163656 73 192 0.0 1.0 0.00 0.00 0.00 31 1014.4
20260506162929 73 205 0.0 0.0 0.00 0.00 0.00 31 1014.4
20260506162430 72 180 0.0 0.0 0.00 0.00 0.00 32 1014.4
20260506162352 72 186 0.0 0.0 0.00 0.00 0.00 32 1014.3
20260506162346 71 217 0.0 0.0 0.00 0.00 0.00 32 1014.3
20260506160930 71 176 0.0 0.0 0.00 0.00 0.00 32 1014.3
20260506160429 71 215 0.0 0.0 0.00 0.00 0.00 32 1014.2
20260506155929 70 220 0.0 0.0 0.00 0.00 0.00 32 1014.3
20260506155430 70 221 0.0 0.0 0.00 0.00 0.00 33 1014.2
20260506154929 69 255 0.0 0.0 0.00 0.00 0.00 34 1014.3
20260506154653 69 256 0.0 0.0 0.00 0.00 0.00 33 1014.3
20260506153929 69 242 0.0 0.0 0.00 0.00 0.00 34 1014.3
20260506153429 69 213 0.0 0.0 0.00 0.00 0.00 34 1014.4
20260506152929 69 196 0.0 0.0 0.00 0.00 0.00 34 1014.4
20260506152429 69 192 0.0 0.0 0.00 0.00 0.00 34 1014.4
20260506152407 68 243 0.0 0.0 0.00 0.00 0.00 34 1014.4
20260506151418 68 243 0.0 0.0 0.00 0.00 0.00 35 1014.4
20260506150913 68 242 0.0 0.0 0.00 0.00 0.00 35 1014.4
20260506150413 67 267 0.0 0.0 0.00 0.00 0.00 35 1014.5
20260506145910 67 267 0.0 0.0 0.00 0.00 0.00 36 1014.4
20260506145410 66 267 0.0 0.0 0.00 0.00 0.00 36 1014.5
20260506144911 66 287 0.0 0.0 0.00 0.00 0.00 36 1014.4
20260506144629 66 286 0.0 0.0 0.00 0.00 0.00 36 1014.4
20260506143907 66 286 0.0 0.0 0.00 0.00 0.00 37 1014.4
20260506143407 66 273 0.0 0.0 0.00 0.00 0.00 37 1014.4
20260506142906 66 273 0.0 0.0 0.00 0.00 0.00 37 1014.3
20260506142404 65 245 0.0 0.0 0.00 0.00 0.00 38 1014.3
20260506141902 65 239 0.0 0.0 0.00 0.00 0.00 39 1014.2
20260506141401 65 239 0.0 0.0 0.00 0.00 0.00 38 1014.1
20260506140901 64 236 0.0 0.0 0.00 0.00 0.00 39 1014.0
20260506140401 63 236 0.0 0.0 0.00 0.00 0.00 40 1013.9
20260506135902 63 236 0.0 0.0 0.00 0.00 0.00 41 1013.9
20260506135401 62 236 0.0 0.0 0.00 0.00 0.00 41 1013.8
20260506134902 62 236 0.0 0.0 0.00 0.00 0.00 41 1013.7
20260506134621 61 236 0.0 0.0 0.00 0.00 0.00 42 1013.6
20260506134348 61 236 0.0 0.0 0.00 0.00 0.00 42 1013.6
20260506133401 61 236 0.0 0.0 0.00 0.00 0.00 42 1013.5
20260506132902 61 236 0.0 0.0 0.00 0.00 0.00 42 1013.4
20260506132401 61 236 0.0 0.0 0.00 0.00 0.00 42 1013.4
20260506131901 61 236 0.0 0.0 0.00 0.00 0.00 43 1013.4
20260506131401 61 236 0.0 0.0 0.00 0.00 0.00 43 1013.4
20260506130902 61 236 0.0 0.0 0.00 0.00 0.00 43 1013.4
20260506130401 61 236 0.0 0.0 0.00 0.00 0.00 43 1013.3
20260506125901 61 236 0.0 0.0 0.00 0.00 0.00 43 1013.2
20260506125624 61 236 0.0 0.0 0.00 0.00 0.00 43 1013.2
20260506124902 61 236 0.0 0.0 0.00 0.00 0.00 42 1013.0
20260506124401 61 236 0.0 0.0 0.00 0.00 0.00 42 1012.9
20260506124120 61 236 0.0 0.0 0.00 0.00 0.00 42 1012.8
20260506123400 61 236 0.0 0.0 0.00 0.00 0.00 42 1012.8
20260506122901 61 236 0.0 0.0 0.00 0.00 0.00 42 1012.7
20260506122401 62 236 0.0 0.0 0.00 0.00 0.00 42 1012.7
20260506121901 62 236 0.0 0.0 0.00 0.00 0.00 42 1012.6
20260506121401 62 236 0.0 0.0 0.00 0.00 0.00 42 1012.6
20260506121059 62 236 0.0 0.0 0.00 0.00 0.00 42 1012.6
20260506121047 62 236 0.0 0.0 0.00 0.00 0.00 42 1012.6
20260506115852 62 236 0.0 0.0 0.00 0.00 0.00 42 1012.5
20260506115352 62 236 0.0 0.0 0.00 0.00 0.00 42 1012.5
20260506114849 62 236 0.0 0.0 0.00 0.00 0.00 42 1012.5
20260506114348 62 236 0.0 0.0 0.00 0.00 0.00 42 1012.5
20260506113847 62 236 0.0 0.0 0.00 0.00 0.00 41 1012.5
20260506113613 62 236 0.0 0.0 0.00 0.00 0.00 42 1012.5
20260506112846 62 236 0.0 0.0 0.00 0.00 0.00 42 1012.5
20260506112343 62 236 0.0 0.0 0.00 0.00 0.00 42 1012.4
20260506111842 62 236 0.0 0.0 0.00 0.00 0.00 42 1012.4
20260506111340 62 236 0.0 0.0 0.00 0.00 0.00 42 1012.4
20260506110838 62 236 0.0 0.0 0.00 0.00 0.00 41 1012.3
20260506110338 62 241 0.0 0.0 0.00 0.00 0.00 40 1012.3
20260506105838 63 250 0.0 0.0 0.00 0.00 0.00 39 1012.3
20260506105336 63 279 0.0 0.0 0.00 0.00 0.00 39 1012.2
20260506104837 63 279 0.0 0.0 0.00 0.00 0.00 38 1012.1
20260506104557 64 279 0.0 0.0 0.00 0.00 0.00 37 1012.1
20260506103832 64 279 0.0 0.0 0.00 0.00 0.00 37 1012.0
20260506103331 64 279 0.0 0.0 0.00 0.00 0.00 37 1012.1
20260506102832 64 279 0.0 0.0 0.00 0.00 0.00 36 1012.0
20260506102331 64 279 0.0 0.0 0.00 0.00 0.00 36 1012.0
20260506101831 64 279 0.0 0.0 0.00 0.00 0.00 37 1012.0
20260506101331 64 280 0.0 0.0 0.00 0.00 0.00 37 1011.9
20260506100832 64 284 0.0 0.0 0.00 0.00 0.00 37 1011.9
20260506100332 64 294 0.0 0.0 0.00 0.00 0.00 37 1011.9
20260506095831 64 294 0.0 0.0 0.00 0.00 0.00 37 1011.9
20260506095333 65 317 0.0 0.0 0.00 0.00 0.00 37 1011.8
20260506094831 65 317 0.0 0.0 0.00 0.00 0.00 37 1011.9
20260506094333 65 314 0.0 0.0 0.00 0.00 0.00 37 1011.9
20260506093829 65 315 0.0 0.0 0.00 0.00 0.00 38 1011.9
20260506093329 65 325 0.0 0.0 0.00 0.00 0.00 38 1011.9
20260506092830 65 302 0.0 0.0 0.00 0.00 0.00 38 1011.9
20260506092329 65 278 0.0 0.0 0.00 0.00 0.00 38 1011.9
20260506091829 65 248 0.0 0.0 0.00 0.00 0.00 38 1011.8
20260506091327 65 248 0.0 0.0 0.00 0.00 0.00 38 1011.8
20260506091049 65 248 0.0 0.0 0.00 0.00 0.00 38 1011.8
20260506090326 65 248 0.0 0.0 0.00 0.00 0.00 38 1011.7
20260506085824 65 248 0.0 0.0 0.00 0.00 0.00 38 1011.7
20260506085547 65 248 0.0 0.0 0.00 0.00 0.00 38 1011.7
20260506084821 65 247 0.0 0.0 0.00 0.00 0.00 38 1011.6
20260506084319 65 247 0.0 0.0 0.00 0.00 0.00 38 1011.6
20260506084049 65 247 0.0 0.0 0.00 0.00 0.00 38 1011.6
20260506083318 65 247 0.0 0.0 0.00 0.00 0.00 38 1011.6
20260506083035 65 247 0.0 0.0 0.00 0.00 0.00 38 1011.6
20260506082314 65 247 0.0 0.0 0.00 0.00 0.00 38 1011.7
20260506081812 65 247 0.0 0.0 0.00 0.00 0.00 38 1011.6
20260506081309 65 247 0.0 0.0 0.00 0.00 0.00 37 1011.6
20260506080808 65 247 0.0 0.0 0.00 0.00 0.00 37 1011.7
20260506080305 65 247 0.0 0.0 0.00 0.00 0.00 38 1011.6
20260506073302 65 248 0.0 0.0 0.00 0.00 0.00 36 1011.6
20260506072802 65 247 0.0 0.0 0.00 0.00 0.00 36 1011.6
20260506072256 66 247 0.0 0.0 0.00 0.00 0.00 36 1011.5
20260506071750 66 247 0.0 0.0 0.00 0.00 0.00 36 1011.5
20260506071244 66 247 0.0 0.0 0.00 0.00 0.00 36 1011.4
20260506070738 66 247 0.0 0.0 0.00 0.00 0.00 36 1011.4
20260506070238 66 247 0.0 0.0 0.00 0.00 0.00 36 1011.4
20260506062234 67 250 0.0 0.0 0.00 0.00 0.00 34 1011.3
20260506061734 67 218 0.0 0.0 0.00 0.00 0.00 34 1011.2
20260506061234 67 211 0.0 0.0 0.00 0.00 0.00 34 1011.3
20260506061005 67 211 0.0 0.0 0.00 0.00 0.00 34 1011.3
20260506060234 67 217 0.0 0.0 0.00 0.00 0.00 34 1011.2
20260506051229 69 232 0.0 0.0 0.00 0.00 0.00 32 1011.0
20260506050729 69 235 0.0 0.0 0.00 0.00 0.00 32 1010.9
20260506050229 69 235 0.0 2.0 0.00 0.00 0.00 32 1010.9
20260506044729 69 229 0.0 1.0 0.00 0.00 0.00 31 1010.6
20260506044229 69 230 0.0 1.0 0.00 0.00 0.00 31 1010.6
20260506043729 69 238 0.0 1.0 0.00 0.00 0.00 31 1010.7
20260506043229 69 225 0.0 0.0 0.00 0.00 0.00 30 1010.6
20260506042729 69 212 0.0 0.0 0.00 0.00 0.00 30 1010.6
20260506042229 69 221 0.0 0.0 0.00 0.00 0.00 30 1010.4
20260506041729 69 225 0.0 0.0 0.00 0.00 0.00 29 1010.4
20260506041231 70 218 0.0 0.0 0.00 0.00 0.00 29 1010.2
20260506040723 70 218 0.0 0.0 0.00 0.00 0.00 29 1010.2
20260506040217 70 221 0.0 0.0 0.00 0.00 0.00 29 1010.2
20260506035712 70 229 0.0 0.0 0.00 0.00 0.00 29 1010.1
20260506035209 70 222 0.0 2.0 0.00 0.00 0.00 29 1010.0
20260506034929 70 232 0.0 2.0 0.00 0.00 0.00 28 1009.9
20260506034205 71 270 0.0 2.0 0.00 0.00 0.00 28 1009.9
20260506033704 71 227 0.0 2.0 0.00 0.00 0.00 28 1009.8
20260506033204 71 204 0.0 1.0 0.00 0.00 0.00 28 1009.8
20260506033148 71 201 0.0 2.0 0.00 0.00 0.00 28 1009.8
20260506032203 71 226 0.0 3.0 0.00 0.00 0.00 28 1009.7
20260506031704 71 215 0.0 3.0 0.00 0.00 0.00 28 1009.6
20260506031205 71 220 0.0 0.0 0.00 0.00 0.00 28 1009.5
20260506030704 71 221 0.0 3.0 0.00 0.00 0.00 28 1009.4
20260506030204 71 232 1.0 9.0 0.00 0.00 0.00 27 1009.4
20260506025705 71 213 1.0 9.0 0.00 0.00 0.00 27 1009.4
20260506025205 72 207 2.0 12.0 0.00 0.00 0.00 27 1009.3
20260506024705 72 232 2.0 12.0 0.00 0.00 0.00 27 1009.2
20260506024422 72 205 0.0 7.0 0.00 0.00 0.00 27 1009.1
20260506023703 72 223 1.0 11.0 0.00 0.00 0.00 26 1009.1
20260506023204 72 221 1.0 11.0 0.00 0.00 0.00 26 1009.1
20260506022703 72 205 1.0 7.0 0.00 0.00 0.00 26 1009.0
20260506022204 72 208 1.0 9.0 0.00 0.00 0.00 26 1008.9
20260506021701 73 204 1.0 9.0 0.00 0.00 0.00 26 1008.8
20260506021428 73 182 0.0 9.0 0.00 0.00 0.00 26 1008.7
20260506021155 73 223 1.0 10.0 0.00 0.00 0.00 26 1008.7
20260506020202 73 190 1.0 10.0 0.00 0.00 0.00 26 1008.6
20260506015701 73 213 1.0 11.0 0.00 0.00 0.00 25 1008.5
20260506015201 74 207 2.0 17.0 0.00 0.00 0.00 25 1008.5
20260506014701 74 206 2.0 17.0 0.00 0.00 0.00 25 1008.4
20260506014201 74 204 1.0 10.0 0.00 0.00 0.00 25 1008.4
20260506013701 74 165 2.0 10.0 0.00 0.00 0.00 25 1008.3
20260506013202 74 243 4.0 12.0 0.00 0.00 0.00 25 1008.3
20260506012700 74 229 3.0 13.0 0.00 0.00 0.00 25 1008.3
20260506012201 75 232 2.0 16.0 0.00 0.00 0.00 26 1008.2
20260506011700 75 225 2.0 16.0 0.00 0.00 0.00 26 1008.2
20260506011201 75 223 2.0 8.0 0.00 0.00 0.00 26 1008.1
20260506010701 75 213 2.0 9.0 0.00 0.00 0.00 26 1008.0
20260506010201 75 204 3.0 12.0 0.00 0.00 0.00 25 1008.1
20260506005926 76 258 2.0 12.0 0.00 0.00 0.00 24 1008.0
20260506005203 76 221 1.0 16.0 0.00 0.00 0.00 24 1008.0
20260506004702 76 213 2.0 16.0 0.00 0.00 0.00 25 1008.0
20260506004201 76 175 2.0 14.0 0.00 0.00 0.00 25 1007.7
20260506003701 76 238 2.0 11.0 0.00 0.00 0.00 24 1007.7
20260506003423 76 248 3.0 11.0 0.00 0.00 0.00 24 1007.7
20260506002927 76 205 2.0 11.0 0.00 0.00 0.00 25 1007.7
20260506002201 75 182 1.0 11.0 0.00 0.00 0.00 25 1007.6
20260506001703 75 196 2.0 11.0 0.00 0.00 0.00 25 1007.6
20260506001202 75 207 2.0 11.0 0.00 0.00 0.00 26 1007.7
20260506000701 76 190 2.0 11.0 0.00 0.00 0.00 25 1007.6
20260506000201 76 159 3.0 15.0 0.00 0.00 0.00 24 1007.5
20260505235702 76 196 4.0 15.0 0.00 0.00 0.00 25 1007.6
20260505235201 76 200 3.0 15.0 0.00 0.00 0.00 25 1007.6
20260505234701 76 214 4.0 20.0 0.00 0.00 0.00 24 1007.6
20260505234201 76 197 5.0 20.0 0.00 0.00 0.00 24 1007.5
20260505233701 76 232 4.0 18.0 0.00 0.00 0.00 24 1007.5
20260505233201 76 164 3.0 15.0 0.00 0.00 0.00 25 1007.5
20260505232701 77 208 2.0 15.0 0.00 0.00 0.00 25 1007.6
20260505232201 77 154 1.0 9.0 0.00 0.00 0.00 25 1007.5
20260505231922 77 247 1.0 9.0 0.00 0.00 0.00 24 1007.6
20260505231201 77 197 2.0 11.0 0.00 0.00 0.00 24 1007.6